Lapse_Rate
4.8 5.1 5.6 5.9 6.2 6.5 6.7 6.7 6.9 7.0 7.1 7.3 7.5 7.6 7.8 7.9 7.9 7.3 7.0 7.7 6.4 6.2 7.3 8.0 7.9 7.4 7.3 7.0 6.5 6.5 6.5 6.7 6.5 6.5 6.5 6.5 6.5 6.5 6.5 6.5 6.5 6.5 6.5 6.5 6.5 6.5 6.5 6.5 6.3 6.5 6.5 5.9 6.0 5.9
5.1 5.5 5.8 6.1 6.4 6.7 6.9 7.1 7.2 7.2 7.3 7.5 7.7 7.9 7.9 7.9 7.9 7.9 7.9 8.3 7.1 6.3 6.8 7.2 6.9 7.7 8.0 8.1 7.4 6.2 6.5 6.6 6.7 6.5 6.5 6.5 6.5 6.5 6.5 6.5 6.5 6.5 6.5 6.5 6.5 6.5 6.5 5.7 5.7 3.6 4.6 5.0 5.9 5.0
5.5 5.8 6.1 6.3 6.6 6.8 7.0 7.2 7.2 7.3 7.4 7.7 7.8 7.8 7.8 8.0 8.1 8.2 8.0 7.2 7.1 6.8 7.2 7.6 7.6 6.9 6.5 6.6 7.2 6.8 7.2 7.4 6.8 6.5 6.5 6.5 6.5 6.5 6.5 6.5 6.5 6.5 6.5 6.5 6.5 6.5 6.5 5.2 4.4 4.5 5.2 6.2 6.5 5.3
5.7 5.9 6.0 6.2 6.4 6.6 6.8 7.1 7.2 7.3 7.4 7.5 7.5 7.5 7.6 7.9 7.9 8.3 7.4 7.3 6.6 6.6 6.7 7.1 8.6 7.5 7.2 8.0 7.7 6.6 6.5 7.8 6.5 5.9 6.5 6.5 6.5 6.5 6.5 6.5 6.5 6.5 6.5 6.5 6.5 6.5 6.4 6.0 6.0 5.7 6.1 4.9 5.8 6.1
5.8 5.7 5.6 5.7 5.8 6.1 6.7 6.9 7.0 7.1 7.3 7.4 7.3 7.3 7.4 7.5 7.4 7.5 8.3 7.2 6.5 6.3 6.7 7.0 7.3 4.8 7.2 6.5 7.1 6.8 7.8 7.5 6.8 6.4 6.4 6.5 6.4 6.5 6.5 6.5 6.5 6.5 6.5 6.5 6.5 6.6 6.4 6.4 5.4 5.9 6.1 6.2 6.3 4.9
5.0 4.9 5.0 5.2 5.5 5.9 6.4 6.7 6.5 6.5 6.6 6.8 6.6 6.6 6.8 7.0 7.0 8.0 6.8 6.6 6.9 6.1 6.6 6.5 8.0 7.6 5.8 6.6 6.7 7.4 7.3 6.4 6.9 6.0 6.3 6.5 7.0 6.3 6.5 6.5 6.5 6.8 6.7 6.7 6.5 6.8 6.0 5.4 5.5 6.1 5.6 5.9 6.4 5.6
4.7 4.6 4.7 5.1 5.4 5.7 6.0 6.0 5.9 5.4 5.2 5.5 5.2 5.3 5.8 6.2 6.7 7.7 7.3 7.1 6.8 7.6 7.0 6.5 6.5 6.8 7.7 6.7 6.9 6.8 6.9 6.6 6.1 5.9 6.5 6.5 6.5 6.3 6.5 6.5 6.5 6.8 6.6 6.7 7.0 5.8 6.3 5.2 5.9 6.7 6.0 6.6 6.7 6.8
4.1 4.1 4.4 4.7 5.0 5.4 5.6 5.8 5.3 4.9 4.7 4.5 4.8 4.8 5.1 5.7 5.5 5.4 6.6 7.2 7.1 7.9 7.6 6.5 6.5 6.7 6.5 6.5 6.0 6.6 6.4 5.8 6.3 6.2 6.6 6.5 6.5 6.5 6.5 6.5 6.6 6.6 6.3 6.9 6.7 6.8 6.6 5.4 4.0 4.4 5.3 5.6 5.2 4.9
3.7 3.9 4.0 4.1 4.4 4.7 4.9 4.8 4.7 4.6 4.3 4.1 4.2 4.2 5.6 5.4 7.4 6.7 6.9 6.8 7.8 7.7 6.7 6.6 6.5 6.5 6.6 6.6 6.3 5.4 6.2 6.5 6.1 6.5 6.5 6.6 6.5 6.5 6.5 6.6 6.4 6.5 6.5 6.6 6.8 6.0 7.2 6.9 5.8 4.8 4.7 4.2 4.7 4.7
3.4 3.5 3.6 3.8 3.9 4.0 4.1 3.9 4.1 4.1 3.9 4.0 5.1 7.8 7.1 6.7 5.5 6.0 6.2 6.5 6.3 6.6 7.1 6.5 7.1 6.5 6.8 6.7 6.4 6.2 6.2 6.5 6.5 6.5 6.6 6.5 6.5 6.7 6.5 6.1 6.2 6.5 5.9 6.3 6.5 6.5 5.9 5.3 5.2 5.1 5.0 5.2 5.0 3.8
3.0 3.2 3.3 3.1 3.1 3.2 3.6 3.8 3.9 4.1 4.3 8.0 7.6 7.3 6.0 5.9 6.9 5.9 6.7 6.6 6.6 6.5 6.9 7.0 6.5 6.5 6.7 6.5 6.5 6.3 6.5 6.5 6.5 6.5 6.5 6.5 6.5 6.5 6.5 6.2 5.8 5.8 5.8 6.0 5.5 5.5 5.2 5.0 4.9 4.9 5.5 5.4 5.4 5.3
2.7 2.8 2.7 2.7 2.6 2.8 3.1 4.1 3.7 5.5 7.6 5.9 5.5 6.2 7.2 7.3 6.6 6.5 6.5 6.6 6.5 6.5 6.7 6.5 6.6 6.6 6.5 6.3 6.5 6.4 6.5 6.5 6.5 6.5 6.5 6.5 6.5 6.3 6.1 6.6 6.0 6.0 6.0 5.7 6.1 6.4 6.7 6.9 6.3 6.3 6.2 6.6 6.6 6.5
2.1 2.2 2.4 2.2 2.4 2.7 3.1 2.8 3.6 4.0 4.5 7.6 6.0 7.0 7.2 6.8 6.5 6.5 6.5 6.5 6.5 6.6 6.7 6.4 6.5 6.6 6.5 6.2 6.5 6.5 6.5 6.5 6.6 6.5 6.5 6.5 6.4 5.7 6.0 6.3 6.7 6.6 6.4 6.1 7.4 7.4 7.4 7.3 7.7 7.2 6.9 6.3 6.2 6.8
1.9 1.7 1.9 1.8 2.1 3.6 2.9 2.4 3.1 4.1 6.2 7.6 6.9 6.5 6.5 6.5 6.5 6.5 6.5 6.5 6.3 6.7 6.5 6.6 6.5 6.5 6.7 6.5 6.5 6.5 6.5 6.5 6.5 6.5 6.5 6.5 6.5 6.3 6.0 4.8 5.5 6.0 6.1 7.2 6.7 6.3 6.6 7.0 6.2 6.4 6.4 6.5 6.4 5.9
1.8 1.4 1.7 3.4 4.2 2.9 2.7 2.3 2.4 5.2 7.0 7.1 6.8 6.5 6.5 5.8 5.9 6.5 5.9 4.8 4.5 4.4 6.8 6.3 6.0 6.2 6.5 6.5 6.5 6.5 6.5 6.5 6.5 6.5 6.5 6.4 6.3 5.4 5.7 5.7 5.9 6.0 5.9 6.6 7.1 6.5 6.5 6.5 6.4 6.0 6.0 6.1 6.2 6.1
2.0 1.6 5.3 4.5 3.6 2.1 2.1 2.5 4.8 6.3 7.4 6.9 6.8 6.4 6.8 6.6 6.7 6.9 6.6 6.4 7.2 7.2 6.2 6.7 6.5 6.5 6.5 6.5 6.5 6.5 6.5 6.5 6.5 6.5 6.3 5.9 6.0 5.2 4.5 4.3 4.4 6.1 6.1 4.6 5.2 5.8 6.1 6.0 6.0 6.1 6.3 6.5 6.4 6.2
1.9 3.8 5.8 4.5 1.9 1.1 3.7 5.1 7.9 7.4 7.5 7.2 6.8 7.6 5.4 6.1 6.3 6.7 6.9 6.9 7.1 6.8 6.5 6.5 6.5 6.5 6.5 6.5 6.5 6.5 6.5 6.5 6.3 5.9 5.3 5.1 5.7 5.0 4.2 5.0 5.1 5.1 4.9 5.5 5.6 5.7 5.6 6.2 6.0 6.0 5.3 5.3 5.5 5.6
4.1 6.0 4.9 3.4 1.2 2.5 6.5 5.3 7.8 7.4 6.8 6.4 6.5 6.8 6.9 6.5 6.0 6.9 6.9 7.3 7.0 6.7 6.1 6.5 6.4 6.5 6.5 6.5 6.5 6.5 6.5 6.0 5.5 5.6 4.6 5.6 6.2 6.5 6.4 6.2 5.4 5.3 5.8 4.9 5.9 5.9 5.4 5.6 5.9 5.8 5.2 5.4 6.3 6.2
3.1 2.5 2.0 1.4 1.3 1.9 6.7 8.0 7.8 6.7 7.0 7.3 6.1 7.6 6.8 6.2 5.9 6.9 7.6 7.6 7.4 7.4 6.9 6.4 6.5 6.5 6.5 6.2 6.4 6.2 5.8 5.6 5.3 5.5 5.0 4.6 4.0 5.3 5.4 6.2 6.2 5.6 5.0 4.7 5.4 6.6 6.5 6.0 6.2 6.3 6.3 6.2 5.8 5.6
0.7 2.3 3.2 2.6 2.2 6.7 7.6 7.4 8.0 6.8 6.1 6.6 5.3 7.1 7.6 7.3 7.2 7.7 7.7 7.8 7.3 7.1 6.5 6.5 6.5 6.2 6.0 5.8 5.8 5.7 5.6 5.5 4.9 4.3 4.9 5.2 5.8 5.9 5.9 6.0 6.5 6.1 6.3 5.9 6.2 5.6 6.8 6.9 6.8 6.7 6.0 5.7 6.0 5.9
4.4 6.1 4.7 5.5 7.0 7.3 8.0 7.7 7.3 6.6 7.4 6.5 6.7 7.1 6.6 7.6 7.4 7.3 7.3 7.6 7.3 6.8 6.3 5.8 6.2 6.1 5.9 5.9 5.7 5.6 4.3 5.2 5.4 5.7 5.6 6.3 6.0 6.6 6.8 6.7 6.2 6.0 6.8 6.7 6.8 6.5 6.5 6.4 6.3 6.7 6.4 6.2 6.5 6.8
6.6 5.0 6.1 8.0 8.3 8.2 7.8 8.3 7.7 7.8 7.1 7.0 7.0 7.3 6.8 6.8 7.0 7.2 7.5 7.0 6.4 6.0 5.8 5.9 5.7 7.2 6.3 5.6 5.6 5.5 5.1 5.6 5.7 6.1 6.1 6.7 7.1 6.9 7.5 7.4 7.1 7.2 7.1 7.2 7.1 7.3 7.1 6.5 6.1 7.0 6.4 6.4 6.1 6.1
3.7 3.8 6.9 8.4 7.5 3.9 3.8 8.2 7.2 7.4 6.4 6.7 7.2 6.7 6.4 6.6 6.8 6.9 6.3 6.3 6.2 6.3 6.0 6.1 6.4 6.2 6.4 6.6 6.3 6.0 5.7 6.0 6.9 6.8 6.8 7.3 7.5 7.2 8.2 7.6 7.5 7.5 7.8 7.8 7.8 7.8 7.7 6.1 7.0 7.2 7.9 7.5 7.1 7.0
1.3 5.4 7.6 7.3 6.5 5.3 7.4 6.0 6.6 7.0 6.8 6.4 6.5 6.5 6.5 6.5 7.1 6.7 6.5 6.6 6.3 7.3 7.5 6.9 7.5 7.4 7.3 6.6 7.1 6.8 7.0 7.6 7.8 7.3 7.4 7.3 7.8 7.4 7.7 7.4 7.6 8.2 8.3 8.1 7.9 7.9 8.1 7.8 6.7 6.9 8.0 8.1 7.0 6.6
4.3 4.3 5.3 2.4 5.6 6.5 6.5 6.5 6.5 6.5 6.5 6.5 6.5 6.5 6.5 5.5 6.5 6.5 6.5 6.7 6.6 7.6 7.7 7.7 7.0 7.0 7.0 7.5 7.8 7.9 7.6 8.0 7.8 7.7 7.9 7.7 7.8 8.2 8.3 8.3 7.6 7.7 8.8 8.4 8.2 8.2 8.3 8.2 8.2 7.9 8.1 8.1 7.7 7.7
6.5 6.1 4.1 6.5 6.5 6.4 6.5 6.5 6.5 6.5 6.5 6.5 6.4 6.1 6.6 6.4 6.5 6.5 6.5 7.4 7.5 7.6 7.9 7.7 7.7 7.7 7.7 7.8 7.9 8.1 8.4 8.4 7.6 8.1 8.2 8.0 8.3 8.3 8.1 8.0 8.1 7.8 8.8 8.5 8.4 8.4 8.4 8.5 8.5 8.4 8.4 8.3 7.2 8.2
6.5 6.5 5.3 4.7 4.9 5.6 6.2 6.8 7.1 6.6 6.5 6.5 6.5 6.5 6.5 6.5 6.5 6.7 7.7 8.2 8.1 8.3 8.3 8.4 8.4 8.2 8.1 8.2 8.4 8.6 8.7 8.2 7.3 7.5 8.7 8.8 8.6 8.6 8.6 8.4 8.1 7.9 8.8 9.0 8.9 8.7 8.7 8.7 8.6 8.6 8.5 8.6 8.4 8.4
5.2 5.8 6.5 6.2 6.1 6.9 6.6 6.6 6.5 6.5 6.6 7.2 7.0 6.5 6.5 6.5 6.5 7.7 8.1 8.4 8.7 8.8 8.5 8.7 8.8 8.9 8.8 8.8 8.9 8.8 8.6 8.6 8.1 8.2 8.6 9.2 9.3 9.2 8.9 9.1 8.6 6.0 8.1 7.8 8.3 8.7 8.8 8.8 8.7 8.7 8.6 8.5 8.4 8.5
5.9 5.0 6.0 6.3 7.0 7.0 7.0 6.8 6.9 7.4 7.8 7.5 6.7 6.5 6.9 7.8 8.3 8.2 8.5 8.6 8.0 7.9 8.4 8.6 8.6 9.0 9.0 9.0 8.9 9.2 8.9 9.0 8.4 7.8 7.9 8.2 8.4 8.8 9.2 9.2 9.2 9.2 9.1 9.0 7.2 8.1 8.0 7.7 8.6 8.6 8.8 8.6 8.7 8.7
6.6 7.2 7.1 7.0 6.6 6.5 7.2 7.8 7.6 8.1 8.1 7.8 8.0 8.0 8.0 8.2 8.6 9.1 8.9 8.7 8.4 8.6 8.7 8.8 8.8 8.7 8.7 8.7 8.7 8.8 8.8 9.3 9.3 8.3 8.0 8.2 8.6 9.2 9.2 9.2 9.2 9.3 9.1 9.0 9.0 8.9 7.5 8.7 8.4 8.9 8.8 8.8 8.7 8.6
7.8 7.6 7.1 7.1 6.9 7.5 7.9 8.3 8.4 8.4 8.3 8.1 8.3 7.8 7.7 8.1 8.6 9.0 8.9 8.7 8.8 8.9 8.8 8.8 8.8 8.8 8.7 8.7 8.6 8.5 8.4 9.1 8.6 8.4 8.5 9.3 9.4 9.3 9.3 9.2 9.3 9.4 9.1 9.1 9.0 8.9 9.0 8.9 8.9 8.8 8.8 8.7 8.7 8.6
7.4 7.1 6.9 6.5 6.9 7.8 8.1 7.7 7.6 7.5 7.7 7.6 7.4 7.9 7.9 7.4 7.2 8.2 8.8 9.0 8.7 8.6 7.4 8.7 8.7 8.7 9.1 9.3 9.3 9.3 8.0 8.3 8.0 8.8 8.6 9.1 9.3 9.3 9.4 9.6 9.6 9.6 9.2 9.3 9.2 9.1 9.1 9.0 8.9 8.8 8.8 8.8 8.8 8.8
7.4 7.4 7.4 7.2 6.4 7.0 7.5 7.5 7.2 7.1 7.3 7.2 6.9 7.5 7.7 7.5 7.1 8.1 8.8 8.7 8.7 8.8 8.9 9.1 9.2 9.3 8.9 9.2 9.4 9.1 8.1 8.1 6.6 5.4 5.0 5.1 4.7 5.8 8.1 9.4 9.3 9.6 9.4 9.3 9.2 9.2 9.1 9.0 8.9 8.9 8.9 8.9 8.9 8.9
Wind_Speed
24 24 24 23 24 25 26 24 22 20 18 18 18 17 16 13 12 3 3 4 4 4 10 15 20 17 12 11 9 4 5 3 4 6 4 4 4 4 6 7 9 5 4 1 1 4 4 6 6 5 5 3 4 4
23 22 21 22 24 24 24 25 22 19 18 17 16 14 12 12 12 9 5 3 1 6 6 15 20 21 22 22 14 3 4 2 3 4 3 1 4 2 3 4 3 3 4 5 5 2 2 3 7 4 7 3 4 6
21 21 21 22 23 24 23 22 22 21 19 18 16 15 14 14 14 10 6 4 2 3 7 10 12 18 22 22 21 11 8 10 5 4 3 2 6 3 3 2 5 3 9 4 9 11 7 6 4 7 18 15 13 12
21 21 22 22 22 23 22 21 22 22 21 20 19 18 16 15 15 12 5 3 2 3 4 8 11 19 19 15 20 24 20 9 1 1 3 3 2 4 1 3 2 4 8 6 5 13 20 10 11 3 21 15 10 12
20 21 21 21 21 22 21 21 22 22 22 22 22 21 18 16 14 12 7 4 4 2 3 9 22 14 13 16 17 19 17 14 4 6 4 2 3 2 3 2 2 1 2 2 3 6 5 7 12 10 15 14 9 15
19 20 21 22 23 23 22 23 24 26 26 25 24 23 20 16 12 5 2 2 6 4 3 4 8 11 16 12 14 19 9 4 5 3 1 2 3 3 2 2 2 6 5 5 4 3 9 11 21 16 14 11 11 14
21 22 22 23 24 25 25 26 27 28 28 28 27 24 20 16 5 3 3 1 5 4 2 4 5 4 12 11 3 4 6 4 2 2 1 2 3 3 2 2 7 7 4 6 4 5 11 19 8 18 19 18 17 18
23 23 24 25 27 28 29 30 31 32 33 31 27 23 21 14 10 6 5 17 8 3 1 3 4 4 7 5 1 3 3 3 2 1 1 1 4 2 2 4 4 7 6 4 11 12 7 5 15 15 15 16 19 18
23 23 25 28 29 31 31 31 32 33 34 33 28 27 4 2 2 1 6 7 3 2 2 2 3 3 4 2 0 4 3 2 2 1 2 2 1 2 6 8 0 6 7 7 10 10 5 7 10 8 10 14 14 13
24 24 25 28 32 33 33 33 31 32 37 33 5 3 2 3 16 7 1 1 1 1 2 3 3 3 3 3 2 4 1 3 2 3 2 3 2 5 9 5 4 8 10 8 3 5 4 7 9 11 8 7 8 8
26 27 28 30 32 33 32 31 30 29 20 1 3 2 4 16 2 1 2 2 2 3 3 4 4 5 3 2 2 2 2 2 2 0 2 3 4 7 9 6 7 8 8 4 4 5 4 5 6 4 4 5 5 5
28 28 29 30 31 33 31 30 26 9 5 5 4 6 3 2 2 3 2 1 2 3 3 3 3 3 0 2 2 3 2 4 2 1 3 3 4 9 10 5 3 2 1 2 3 1 4 7 6 4 2 1 4 4
30 31 31 31 31 30 31 27 24 16 16 2 2 3 3 2 3 4 4 1 3 3 4 4 1 2 3 3 2 2 1 4 1 4 3 2 3 7 7 4 3 6 6 5 3 7 4 7 4 4 3 4 6 6
30 32 33 33 30 27 24 22 20 10 4 3 4 8 5 5 3 6 8 6 6 7 8 9 2 2 2 1 1 3 3 3 4 4 4 2 6 1 3 5 5 5 5 10 14 11 8 10 10 9 7 4 5 7
29 33 34 23 20 25 26 25 17 2 3 3 4 3 4 6 10 13 8 4 5 6 6 1 2 1 2 3 6 6 5 5 6 3 2 5 7 9 7 4 2 8 8 11 14 6 7 6 6 7 5 6 6 6
27 30 2 16 31 32 32 19 3 3 1 2 3 8 10 11 12 12 11 12 14 12 4 6 6 5 8 4 6 7 4 5 3 2 4 4 8 9 10 8 7 6 11 11 7 6 7 8 7 5 3 4 5 6
22 5 27 31 31 35 16 2 3 3 2 5 6 9 6 5 9 10 10 11 10 12 10 5 7 8 3 5 5 4 3 3 3 3 3 6 6 4 5 7 7 9 7 6 5 11 8 12 9 7 7 5 7 6
4 14 26 29 24 10 2 3 3 4 6 2 4 9 11 11 10 11 10 12 9 9 6 6 4 7 4 3 2 1 0 2 3 5 5 4 5 4 2 5 6 6 5 7 6 10 10 11 10 6 8 9 10 11
16 23 31 30 10 4 3 2 1 3 6 5 6 8 9 10 11 11 12 12 12 8 7 5 6 6 6 5 9 8 6 2 1 3 3 3 5 5 6 5 5 7 8 8 8 7 7 9 8 6 5 6 5 5
29 24 21 22 6 3 3 3 2 3 4 4 4 8 9 9 9 11 12 12 9 8 10 7 7 7 8 8 8 6 4 4 3 5 4 4 2 3 2 2 3 4 5 6 8 10 9 9 8 8 5 6 6 4
9 7 14 2 2 4 3 3 3 2 2 3 2 5 3 7 10 11 11 8 9 6 7 6 7 7 7 8 8 7 8 5 4 4 4 4 4 1 1 2 5 5 6 5 7 8 8 6 6 6 5 5 6 6
3 12 3 3 2 1 1 1 3 2 1 1 3 3 4 5 6 6 5 7 4 3 3 5 7 7 9 12 11 12 13 10 9 9 12 8 7 10 11 10 8 7 8 7 7 7 7 4 6 8 5 5 6 5
11 3 3 2 2 2 5 1 2 2 1 1 1 2 2 3 3 1 3 4 4 4 6 4 5 7 7 6 11 13 13 12 6 7 8 7 7 8 11 12 11 11 10 10 9 8 8 11 12 11 11 10 9 7
2 3 3 3 1 3 2 3 3 3 3 1 1 2 3 2 1 3 5 4 3 7 10 11 9 8 7 7 6 7 8 10 10 7 8 5 7 8 11 10 11 11 10 9 10 9 9 10 12 11 11 11 11 10
3 4 1 4 4 3 4 2 4 4 4 2 5 4 4 2 2 3 3 5 6 7 8 8 7 7 4 7 8 8 11 10 10 10 9 8 7 7 8 9 10 10 9 8 9 9 9 10 10 11 11 9 10 11
3 1 5 10 10 7 3 4 4 3 3 5 4 3 3 1 3 3 2 5 5 7 7 7 6 6 7 8 8 8 9 10 9 10 8 9 9 9 9 9 8 8 8 8 8 9 11 11 9 11 10 11 11 11
7 9 3 3 3 3 4 4 6 6 6 6 4 4 3 4 4 3 3 4 5 5 6 6 7 7 8 8 7 8 9 10 11 10 8 10 10 10 9 8 8 5 6 8 7 8 8 8 8 8 8 9 10 11
4 9 6 3 3 4 3 6 7 7 7 7 3 6 3 3 2 3 2 5 5 6 6 4 7 8 8 8 8 8 9 9 10 10 9 9 9 9 8 7 6 10 4 4 5 5 6 6 7 8 10 9 8 9
3 4 5 5 4 2 4 7 7 5 6 5 3 3 2 2 1 3 4 5 5 3 7 7 7 8 8 7 8 7 8 8 11 15 16 9 8 7 8 8 8 7 7 7 4 4 6 6 5 6 9 8 8 8
6 6 5 6 7 4 6 5 6 7 6 6 5 5 4 3 2 3 4 6 7 7 8 8 6 7 7 8 8 8 9 8 8 8 7 7 7 7 7 7 7 7 6 8 8 7 8 9 9 8 8 6 6 6
2 3 5 3 4 7 8 7 7 6 7 6 5 4 4 2 1 2 4 5 6 7 8 8 8 8 8 8 7 7 6 7 9 10 8 6 6 6 7 8 8 8 8 9 8 8 8 7 6 7 8 9 9 9
2 4 6 2 4 6 5 7 6 5 4 3 3 3 3 1 1 1 3 5 6 7 8 8 8 8 8 7 7 5 10 7 6 6 8 6 6 6 7 7 7 8 9 8 6 6 6 7 7 8 8 10 10 10
3 2 3 2 6 5 5 3 1 2 3 2 2 5 4 2 4 3 5 6 7 7 6 7 7 7 8 9 7 5 7 6 7 5 3 3 2 3 4 5 6 8 10 7 9 8 10 11 9 10 10 10 10 10
Wind_Direction
337 335 336 337 337 338 338 333 327 330 331 330 326 319 320 320 318 272 261 211 209 226 260 265 273 275 281 270 267 287 353 351 254 221 188 179 224 266 302 324 317 316 341 284 12 150 239 349 56 167 205 143 128 82
338 339 337 337 337 336 337 344 342 338 333 332 331 338 324 319 315 309 279 291 252 249 271 286 275 276 270 265 271 190 214 138 291 295 294 87 229 193 338 313 14 328 24 302 352 86 108 316 156 260 316 320 50 62
335 334 334 335 335 335 335 339 339 341 341 335 328 327 323 319 314 300 288 303 298 269 279 253 261 259 234 232 240 248 251 224 225 334 311 262 255 147 202 336 308 347 17 342 336 1 345 225 351 70 63 47 28 51
335 334 333 331 332 334 337 336 335 333 331 329 326 322 321 319 313 307 285 243 205 282 273 287 306 300 302 295 230 213 230 251 189 46 287 279 305 332 55 267 340 21 309 324 310 355 347 63 35 216 105 102 14 54
337 338 337 334 333 332 330 327 325 323 324 322 317 312 312 312 319 304 272 248 181 215 293 295 298 276 269 246 257 196 215 226 219 223 231 276 327 288 240 215 175 306 313 338 59 326 279 342 356 65 84 92 96 65
337 336 335 335 331 326 322 319 318 317 317 313 308 307 299 293 309 296 312 354 178 171 294 307 323 301 333 341 218 185 204 181 226 252 5 354 262 288 318 318 256 327 316 237 151 188 59 15 33 10 63 70 85 81
329 327 328 329 324 320 317 315 315 317 315 314 308 303 298 281 265 253 246 252 286 314 241 293 306 281 316 295 165 152 185 195 156 67 252 275 275 313 269 231 340 331 35 61 22 325 23 38 17 357 31 48 51 54
320 320 321 320 316 314 311 311 311 313 313 312 311 305 297 275 258 261 248 249 253 240 263 274 277 307 14 331 304 158 161 114 56 113 90 320 301 330 306 1 313 330 2 68 65 64 84 102 68 7 16 40 46 37
319 319 319 317 315 312 311 311 312 314 312 310 312 296 295 194 235 101 123 158 219 213 273 253 286 295 329 272 89 293 130 79 45 51 318 252 278 13 323 284 308 26 57 71 92 71 71 81 78 59 35 31 38 33
317 317 317 316 315 315 315 313 316 320 313 311 282 221 228 189 118 137 80 158 150 223 238 256 200 253 266 191 254 16 43 168 176 208 139 24 17 296 348 17 65 79 78 27 64 76 33 51 60 61 44 29 37 38
317 319 318 317 317 317 314 312 322 325 302 249 330 327 327 151 154 154 276 260 184 246 209 243 244 228 241 218 324 139 291 130 81 219 84 39 4 323 6 72 64 78 93 128 144 116 106 84 74 68 41 41 37 29
315 316 315 315 317 316 310 314 323 324 335 315 294 277 257 281 282 272 234 1 293 271 240 241 280 320 175 178 89 335 293 128 85 62 65 52 346 350 352 22 86 69 124 266 303 197 174 141 164 139 151 60 34 37
314 314 314 315 315 310 305 316 318 313 297 225 222 272 351 9 326 285 334 307 271 245 250 262 31 252 331 41 116 45 339 56 159 57 58 2 299 300 325 9 1 325 277 200 123 79 90 57 58 67 70 27 347 37
311 311 313 316 310 304 307 315 324 335 298 330 322 341 13 336 299 275 316 279 256 248 258 282 212 177 196 200 45 36 46 33 55 47 44 321 319 281 252 289 13 343 275 47 97 107 91 70 60 54 48 43 53 44
311 311 311 308 307 314 325 326 314 264 269 328 22 330 316 311 322 326 360 327 269 257 249 211 201 162 87 32 18 9 49 51 26 39 19 349 9 1 31 145 58 46 41 37 59 54 63 80 82 74 38 35 48 45
317 311 306 338 344 330 322 319 210 231 239 306 244 340 352 6 344 342 350 356 351 8 30 39 24 40 38 36 22 22 37 30 341 13 13 23 37 27 3 11 21 49 64 28 16 36 54 42 47 47 35 35 32 61
314 227 347 340 334 320 318 265 255 245 77 23 347 348 100 335 339 344 349 6 359 26 18 36 35 38 19 32 24 12 28 27 28 11 351 353 44 22 341 11 359 52 51 126 26 50 52 40 35 36 32 12 18 18
249 314 316 319 334 296 239 202 325 359 13 70 348 2 16 34 353 0 20 15 22 21 24 45 39 30 44 34 31 57 59 335 335 13 345 6 18 41 341 35 67 76 41 19 46 54 46 44 33 22 19 9 38 18
286 292 295 298 305 307 295 33 33 315 44 21 343 22 36 28 20 19 28 29 30 36 37 37 41 27 39 33 61 53 57 85 136 165 191 250 288 358 17 28 57 51 54 55 47 59 60 50 32 16 24 27 22 30
295 287 288 287 241 273 332 10 294 2 27 357 344 38 38 35 37 37 33 29 26 36 41 49 52 44 42 36 39 40 61 79 45 40 25 29 102 145 335 64 71 69 72 66 54 54 47 35 13 5 25 25 13 23
300 332 329 283 181 250 349 354 332 77 343 345 74 52 46 38 43 43 42 21 46 47 41 31 60 51 44 37 27 16 5 354 23 47 8 12 341 68 57 73 71 59 54 44 50 57 50 40 360 353 26 2 357 34
341 336 289 209 292 45 257 269 315 334 281 205 79 72 61 45 41 15 4 29 38 34 6 23 33 58 47 33 22 19 5 14 38 28 15 353 33 36 31 27 41 61 54 46 44 45 41 31 11 355 352 6 3 48
275 212 236 263 324 42 261 203 260 257 349 108 115 80 49 43 34 63 36 6 11 9 29 15 33 49 40 45 37 14 5 5 34 30 18 17 31 32 53 49 40 36 35 32 28 27 25 25 16 14 12 18 17 28
138 294 325 312 237 274 213 222 210 216 200 273 177 88 67 81 160 77 42 21 11 25 32 25 21 16 14 17 49 38 17 14 10 12 10 22 52 49 63 49 40 28 23 30 26 18 21 24 20 12 8 22 14 5
350 316 164 292 240 259 282 297 359 341 343 312 130 140 197 315 40 64 37 25 13 24 22 17 352 339 356 27 24 37 36 31 9 1 15 35 39 45 56 68 53 25 12 31 27 9 23 25 18 359 354 14 13 353
22 70 39 14 358 331 11 343 317 346 4 9 89 125 152 143 75 55 48 337 351 359 354 343 326 355 40 29 26 39 44 37 22 6 18 51 41 39 37 43 41 14 5 35 23 14 26 16 355 348 354 1 7 20
32 12 345 239 180 264 288 279 305 25 16 358 39 41 85 61 52 19 347 336 327 333 329 341 352 29 34 26 33 53 49 42 29 3 11 56 49 39 33 34 43 357 13 25 16 42 17 358 356 356 10 29 32 26
168 205 216 224 255 247 16 20 23 23 7 334 36 34 54 57 40 338 316 292 321 326 318 351 47 47 37 32 44 49 49 37 27 12 12 36 45 40 14 10 24 5 64 23 8 46 1 8 358 12 16 24 37 23
199 202 185 214 130 21 59 57 44 33 354 4 56 67 91 77 312 312 342 309 283 303 31 20 44 43 31 26 41 46 65 54 36 24 15 8 13 18 11 9 10 8 2 349 75 52 347 0 33 30 31 33 32 9
166 172 107 70 70 86 81 90 91 101 89 90 113 128 140 175 199 289 11 13 15 25 26 4 41 53 36 22 28 43 72 61 53 38 8 358 1 6 360 359 2 3 354 347 1 50 18 22 30 24 26 19 24 352
354 29 118 133 95 117 135 127 130 135 126 103 85 107 119 127 126 336 12 22 37 41 29 3 24 55 44 28 34 19 53 71 53 45 16 1 15 8 1 6 4 358 353 347 17 36 27 11 22 12 15 20 18 10
287 55 352 44 138 121 147 160 182 170 149 163 133 128 129 107 104 163 51 14 35 44 29 9 19 52 48 38 31 36 90 88 72 55 47 33 24 11 352 17 1 358 343 357 7 43 2 14 28 19 13 18 17 9
349 33 346 31 127 193 201 136 134 122 150 166 103 97 97 72 43 56 89 73 65 59 34 16 39 48 62 50 21 35 99 114 131 145 192 248 261 302 323 6 356 351 349 5 5 24 31 25 24 20 15 17 10 4